Weather History for Burbank, CA

Change the Weather History Date:

Tuesday, March 12, 2013

  Actual Average Record
Temperature  
Mean Temperature 69 °F 58 °F  
Max Temperature 87 °F 70 °F 93 °F (2007)
Min Temperature 50 °F 46 °F 34 °F (2006)
Degree Days  
Heating Degree Days 0 7  
Month to date heating degree days 53 91  
Since 1 July heating degree days 1064 1232  
Cooling Degree Days 4 0  
Month to date cooling degree days 13 0  
Year to date cooling degree days 15 6  
Growing Degree Days 18 (Base 50)    
Moisture  
Dew Point 35 °F    
Average Humidity 35    
Maximum Humidity 56    
Minimum Humidity 13    
Precipitation  
Precipitation 0.00 in 0.11 in 1.43 in (1941)
Month to date precipitation 0.01 1.50  
Year to date precipitation 0.94 9.51  
Since 1 July precipitation 3.74 14.27  
Sea Level Pressure  
Sea Level Pressure 30.03 in    
Wind  
Wind Speed 3 mph (SW)    
Max Wind Speed 12 mph    
Max Gust Speed 16 mph    
Visibility 10 miles    
Events      
T = Trace of Precipitation, MM = Missing Value Source: NWS Daily Summary

Daily Weather History Graph

Daily Weather History Graph

Search for Another Location

Airport:

Trip Planner

Search our weather history database for the weather conditions in past years. The results will help you decide how hot, cold, wet, or windy it might be!

Date:

Astronomy

Mar. 12, 2013 Rise Set
Actual Time 7:07 AM PDT 6:59 PM PDT
Civil Twilight 6:42 AM PDT 7:24 PM PDT
Nautical Twilight 6:13 AM PDT 7:53 PM PDT
Astronomical Twilight 5:44 AM PDT 8:22 PM PDT
Moon 7:21 AM PDT (3/12) 8:13 PM PDT (3/12)
Length of Visible Light 12h 41m
Length of Day
11h 51m
New Moon, 1% of the Moon is Illuminated
Mar 12
New Moon
Mar 19
First Quarter
Mar 27
Full
Apr 2
Last Quarter
Apr 10
New

Hourly Weather History & Observations

Time (PDT) Temp. Dew Point Humidity Pressure Visibility Wind Dir Wind Speed Gust Speed Precip Events Conditions
12:53 AM 57.0 °F 39.0 °F 51% 30.04 in 10.0 mi Calm Calm - N/A   Clear
1:53 AM 55.0 °F 39.0 °F 55% 30.04 in 10.0 mi Calm Calm - N/A   Clear
2:53 AM 53.1 °F 37.9 °F 57% 30.04 in 10.0 mi North 3.5 mph - N/A   Clear
3:53 AM 53.1 °F 37.0 °F 55% 30.02 in 10.0 mi Calm Calm - N/A   Clear
4:53 AM 52.0 °F 35.1 °F 53% 30.01 in 10.0 mi WSW 3.5 mph - N/A   Clear
5:53 AM 50.0 °F 35.1 °F 57% 30.01 in 10.0 mi Calm Calm - N/A   Clear
6:53 AM 51.1 °F 35.1 °F 54% 30.01 in 10.0 mi Calm Calm - N/A   Clear
7:53 AM 52.0 °F 36.0 °F 54% 30.03 in 10.0 mi Calm Calm - N/A   Clear
8:53 AM 59.0 °F 37.9 °F 46% 30.05 in 10.0 mi Calm Calm - N/A   Clear
9:53 AM 66.9 °F 36.0 °F 32% 30.05 in 10.0 mi Calm Calm - N/A   Clear
10:53 AM 73.0 °F 32.0 °F 22% 30.05 in 10.0 mi Calm Calm - N/A   Clear
11:53 AM 78.1 °F 30.9 °F 18% 30.05 in 10.0 mi Calm Calm - N/A   Clear
12:53 PM 81.0 °F 30.0 °F 16% 30.03 in 10.0 mi South 3.5 mph - N/A   Clear
1:53 PM 84.9 °F 28.0 °F 13% 30.00 in 10.0 mi SSE 3.5 mph - N/A   Clear
2:53 PM 86.0 °F 36.0 °F 17% 29.99 in 10.0 mi SSW 6.9 mph - N/A   Clear
3:53 PM 84.9 °F 34.0 °F 16% 29.98 in 10.0 mi South 8.1 mph - N/A   Clear
4:53 PM 84.0 °F 33.1 °F 16% 29.97 in 10.0 mi SSW 8.1 mph - N/A   Clear
5:53 PM 82.0 °F 30.0 °F 15% 29.98 in 10.0 mi SSE 4.6 mph - N/A   Clear
6:53 PM 78.1 °F 37.0 °F 23% 29.99 in 10.0 mi South 3.5 mph - N/A   Clear
7:53 PM 75.0 °F 41.0 °F 29% 30.01 in 10.0 mi Variable 3.5 mph - N/A   Clear
8:53 PM 71.1 °F 28.9 °F 21% 30.03 in 10.0 mi NW 4.6 mph - N/A   Clear
9:53 PM 70.0 °F 35.1 °F 28% 30.04 in 10.0 mi WNW 6.9 mph - N/A   Clear
10:53 PM 68.0 °F 35.1 °F 30% 30.05 in 10.0 mi WNW 8.1 mph - N/A   Clear
11:43 PM 64.4 °F 35.6 °F 34% 30.09 in 2.5 mi Calm Calm - N/A   Haze
11:51 PM 64.4 °F 37.4 °F 37% 30.09 in 10.0 mi Calm Calm - N/A   Clear
11:53 PM 64.0 °F 37.0 °F 37% 30.05 in 10.0 mi Calm Calm - N/A   Clear